Wind_Speed
10 10 9 9 7 4 1 3 2 4 7 8 9 8 6 4 2 3 2 4 5 5 5 4 4 4 4 4 4 4 5 6 6 7 7 7 7 8 8 8 9 10 11 12 13 13 12 10 8
8 8 8 7 6 5 2 1 4 5 4 4 5 6 5 4 3 3 3 4 6 6 6 6 6 6 6 6 6 6 6 6 7 7 7 7 7 7 7 8 9 10 11 12 12 12 12 11 9
8 7 7 6 6 5 4 5 5 5 4 3 4 4 4 5 5 5 5 6 7 7 7 7 7 7 7 7 7 6 6 6 7 7 7 7 8 8 8 8 9 10 11 11 12 12 12 11 10
8 8 7 6 8 6 6 7 6 6 3 4 4 4 4 6 7 7 8 8 8 8 8 8 8 8 7 7 7 7 7 8 8 9 9 10 10 10 10 10 10 11 11 11 12 12 11 11 10
9 9 7 8 11 10 8 10 10 7 4 5 5 4 4 6 8 8 8 9 9 9 8 8 7 7 7 7 8 8 9 11 11 12 12 13 13 13 13 13 13 13 13 13 13 12 12 12 11
11 10 8 10 14 14 13 14 16 11 9 7 6 5 5 6 8 8 8 8 8 8 7 7 7 8 9 10 10 12 13 14 15 15 16 16 16 16 16 16 16 16 16 16 16 16 15 15 14
14 12 10 10 12 11 13 16 18 15 11 8 8 7 7 7 8 9 9 8 9 8 8 9 10 11 12 12 13 15 16 16 17 17 18 18 19 19 19 20 20 20 20 21 20 20 20 19 18
17 15 13 13 14 11 12 14 16 15 14 11 8 9 11 10 10 10 11 10 10 12 12 13 14 15 16 16 16 17 17 17 18 18 19 19 20 21 22 23 23 24 24 24 25 25 24 24 23
18 17 17 17 18 14 12 13 16 15 15 13 12 14 16 15 13 12 12 13 15 16 17 18 19 20 20 19 19 19 19 19 19 19 20 21 21 22 23 25 26 27 27 27 28 28 28 27 27
19 18 19 22 21 18 13 14 17 18 16 16 17 17 19 19 17 14 12 15 19 21 22 23 24 23 23 22 21 21 21 21 21 21 21 21 22 23 24 25 26 27 28 29 29 30 30 30 30
20 19 23 26 25 22 18 17 19 21 20 20 20 21 23 23 21 19 17 17 21 25 27 28 28 26 25 24 24 23 23 23 23 22 22 21 21 22 23 24 25 26 27 28 29 29 29 30 31
20 19 25 29 30 27 24 22 22 24 24 25 25 26 28 28 25 25 25 24 25 29 31 32 30 29 28 27 26 26 26 26 25 24 23 22 22 23 23 23 24 25 26 26 27 28 28 28 28
20 20 22 27 31 30 29 28 27 28 29 30 31 32 32 31 30 29 28 29 30 30 33 33 32 31 31 30 29 28 28 27 27 25 24 24 24 24 24 23 24 24 24 25 25 25 26 27 25
21 20 19 20 23 27 30 31 31 31 31 32 32 32 32 32 32 32 32 33 34 35 35 35 35 34 33 32 31 29 29 28 28 26 25 25 25 25 24 23 23 24 24 24 24 24 23 22 21
20 19 17 17 19 20 25 28 28 27 28 29 29 30 32 33 34 35 36 37 39 39 39 39 40 39 37 33 32 31 31 30 28 27 26 26 25 24 23 22 22 22 23 23 23 23 22 20 19
19 17 14 13 14 15 21 22 19 22 25 27 28 30 33 34 36 38 39 41 42 44 44 45 44 43 42 37 32 33 32 30 28 27 26 26 25 24 22 22 22 22 22 22 22 21 20 18 17
17 14 13 12 12 13 15 15 17 21 25 28 30 33 35 37 39 41 42 44 45 46 46 46 45 43 39 38 35 32 31 29 28 27 25 25 25 24 22 22 21 21 21 21 20 19 18 17 16
13 11 9 10 10 11 15 18 20 24 27 30 33 35 37 40 42 43 44 44 44 45 47 44 41 39 34 32 31 30 29 28 26 25 24 25 25 24 23 22 21 21 20 20 19 18 17 16 15
12 12 12 12 12 13 16 20 23 27 29 32 34 37 40 42 43 42 42 41 43 45 45 44 43 39 27 25 26 28 28 26 24 24 24 24 24 23 23 22 22 21 20 19 18 18 17 16 15
11 15 18 19 19 19 22 25 27 29 31 33 36 37 38 39 40 39 39 40 42 44 46 45 41 31 21 21 23 25 24 23 24 23 23 23 23 23 23 23 23 22 21 20 19 19 18 18 17
11 16 19 22 24 25 26 28 30 31 32 32 33 33 33 33 35 37 39 40 42 42 42 40 37 31 27 24 21 22 23 22 23 23 22 22 22 23 23 23 23 23 22 21 21 20 20 20 19
9 12 15 18 21 24 26 30 33 34 34 33 31 31 31 32 34 36 38 40 41 42 41 40 36 31 29 26 22 21 21 22 22 21 21 22 23 23 23 24 24 24 24 24 23 23 23 22 22
7 9 10 12 14 16 18 23 25 28 30 29 29 29 30 31 34 36 39 40 42 43 43 41 37 33 30 28 26 24 23 23 24 24 23 23 23 24 25 26 26 27 27 27 27 26 25 24 24
9 9 9 10 11 13 14 17 20 22 23 24 26 28 30 33 36 38 41 43 44 45 45 43 41 39 36 34 32 31 30 30 30 30 29 27 26 27 27 27 28 29 30 31 30 29 28 27 26
9 10 10 10 12 14 16 18 20 22 20 21 22 23 27 31 35 38 42 44 47 48 48 47 46 44 43 42 40 39 38 37 36 36 36 35 33 31 31 30 31 31 33 34 34 32 31 30 29
10 13 14 15 17 18 20 22 22 24 24 26 28 30 32 36 39 43 46 48 50 50 51 50 50 49 48 47 47 46 46 45 43 43 42 42 41 39 37 35 35 35 35 36 36 36 34 33 32
14 15 16 18 19 21 23 23 24 26 28 31 33 36 39 42 45 48 51 53 54 55 55 55 54 53 52 52 52 52 52 51 50 49 48 48 48 47 45 43 42 40 40 39 40 39 39 37 36
15 18 19 19 22 24 26 27 28 30 32 34 37 40 43 46 49 52 55 57 59 61 61 61 61 59 58 57 56 56 57 57 56 55 54 54 53 53 52 51 50 48 46 44 43 43 42 41 39
16 18 20 22 23 25 28 30 32 34 36 39 42 44 46 49 52 54 57 60 62 65 68 69 69 68 67 65 63 62 61 61 61 61 60 59 58 58 58 57 56 55 54 51 50 47 45 44 43
18 20 21 21 23 25 29 33 35 38 41 43 46 48 50 53 55 57 60 62 65 68 70 72 72 71 69 66 63 60 58 57 58 60 62 64 63 63 62 62 62 61 60 59 57 54 51 49 47
Wind_Direction
140 143 147 149 153 172 195 52 33 299 310 324 317 322 351 8 319 251 241 223 234 233 234 243 252 260 267 276 290 309 323 332 339 344 345 346 349 353 355 354 353 353 355 358 360 1 2 2 0
148 154 162 165 185 223 249 344 315 308 318 322 299 302 330 344 319 283 254 247 243 243 245 252 259 266 274 279 287 299 309 317 324 329 332 331 330 332 335 336 335 337 341 346 350 353 355 357 358
169 174 180 192 213 248 243 255 276 295 315 309 281 286 305 302 295 281 269 263 256 253 255 260 265 270 275 281 286 290 296 302 307 312 316 316 313 311 312 314 316 319 324 332 338 341 344 348 352
197 200 207 220 228 244 250 258 268 267 295 300 291 286 291 288 281 279 274 267 262 259 258 260 263 266 269 272 275 278 282 287 291 295 298 299 299 297 295 295 297 301 306 314 321 326 330 334 339
217 222 229 247 257 261 273 286 281 261 268 282 295 299 300 292 283 280 278 272 267 262 259 259 262 264 267 270 272 275 280 282 283 284 285 286 287 288 286 284 285 287 291 296 302 307 310 314 319
224 229 237 264 273 276 291 305 302 296 281 284 294 298 305 294 288 282 276 272 269 267 262 262 268 271 276 280 281 283 284 284 283 282 281 281 280 279 280 279 279 281 282 285 288 292 295 297 299
225 222 227 248 261 280 304 304 300 291 279 272 285 288 295 293 284 279 273 268 267 268 270 273 278 281 283 285 286 286 286 286 284 282 281 280 278 277 275 275 275 276 277 279 282 284 286 288 289
231 222 218 233 249 272 299 299 298 296 286 278 278 287 296 289 276 272 270 269 273 278 281 283 286 286 287 288 289 289 288 287 286 284 282 280 278 277 275 274 274 274 275 276 277 279 281 282 283
238 225 218 231 246 257 282 290 285 288 288 289 292 296 301 293 283 273 270 281 285 284 285 286 288 288 288 290 291 292 293 293 292 289 286 284 281 279 277 276 275 275 274 274 275 276 277 278 278
244 229 220 235 244 250 260 272 279 283 286 294 300 302 305 300 298 286 273 284 287 286 285 285 286 287 288 291 294 297 298 299 298 295 290 287 285 284 282 279 277 275 274 274 274 275 276 276 276
248 234 223 232 242 248 252 257 267 275 282 290 296 300 301 301 299 295 284 282 286 286 286 286 284 285 288 292 296 298 299 300 299 296 292 289 288 287 284 282 279 277 276 274 274 276 276 275 274
257 244 233 235 243 246 250 253 258 268 275 282 287 290 294 294 293 293 291 289 288 287 284 283 282 284 288 291 294 297 298 299 298 296 291 288 287 286 284 281 279 277 277 277 275 275 276 276 275
263 256 249 248 251 253 252 255 257 261 270 276 281 285 289 290 289 290 291 291 289 289 284 279 279 281 285 287 289 292 294 295 295 293 290 289 287 286 283 280 276 274 274 274 275 277 279 278 274
263 263 261 260 261 260 258 257 259 263 267 272 277 281 284 286 287 287 287 287 285 285 281 275 273 272 274 277 280 284 287 288 288 287 286 286 285 284 281 278 274 271 270 269 269 270 275 276 274
260 262 263 262 260 258 256 256 260 266 269 272 276 279 281 284 285 286 286 286 287 286 284 280 275 268 267 265 269 273 281 280 279 280 283 285 285 284 280 277 274 271 268 266 265 266 270 271 269
256 254 247 247 251 252 254 259 258 261 267 272 275 279 282 283 285 286 287 288 288 288 287 283 280 271 262 256 257 264 270 273 274 277 282 286 286 284 280 276 272 269 266 264 264 264 265 262 264
250 241 233 229 238 238 247 256 257 260 264 269 274 278 282 284 285 286 289 291 291 290 288 288 283 275 262 253 252 253 257 265 271 277 282 285 286 284 281 276 273 268 265 263 262 261 260 259 260
236 230 229 232 235 243 245 246 255 259 263 268 273 277 280 282 284 288 291 293 296 297 295 293 290 284 268 247 243 243 249 258 267 273 280 286 285 284 281 278 274 268 263 260 257 256 254 254 254
228 225 231 235 232 237 240 240 244 249 258 266 271 275 277 281 284 289 293 296 298 302 305 306 307 300 274 253 249 244 247 253 263 270 276 280 280 280 278 276 272 266 260 255 252 250 248 246 246
233 234 233 234 239 241 241 240 244 250 258 266 271 275 277 281 285 289 294 298 304 308 310 312 315 309 291 276 265 259 257 260 267 271 275 274 274 273 272 270 267 261 255 249 247 246 246 245 243
245 246 242 240 242 248 255 258 261 262 265 269 272 275 278 282 287 292 296 299 303 306 310 314 311 312 309 301 286 275 269 271 275 273 272 270 270 269 266 265 261 256 251 247 246 247 247 248 247
266 261 259 252 250 253 260 266 269 271 271 272 273 275 278 282 286 289 292 295 299 304 309 311 312 311 309 307 297 288 280 275 275 273 271 273 272 269 264 261 257 252 249 248 248 250 251 252 252
312 296 286 273 265 265 268 276 283 282 278 273 272 274 276 279 282 286 289 292 296 301 305 307 308 308 307 304 298 292 287 280 280 277 274 273 271 268 263 260 257 252 249 249 250 252 254 255 256
332 320 302 288 284 282 286 289 302 307 290 280 277 276 275 278 281 285 289 292 296 300 303 305 306 306 304 302 295 289 286 283 279 278 276 274 270 266 261 259 257 254 250 249 251 253 254 255 257
333 329 318 303 303 305 303 304 310 319 311 301 301 295 291 291 291 292 294 297 300 302 304 304 304 303 300 298 294 289 285 281 278 276 274 272 269 266 261 258 256 255 254 252 252 253 254 255 256
326 326 325 325 323 319 315 315 316 313 311 309 309 307 305 302 300 299 299 300 301 302 302 301 300 298 296 293 290 287 284 281 277 274 272 269 267 265 261 258 255 254 253 253 253 253 254 255 255
312 312 315 318 319 318 318 318 315 312 311 310 310 308 307 305 303 303 303 302 302 301 300 298 297 294 291 288 285 283 280 278 276 273 270 267 265 263 261 258 255 253 251 252 253 253 252 253 254
303 305 306 310 314 316 317 318 318 316 316 314 312 311 309 307 306 306 305 305 304 303 301 300 297 295 291 287 284 281 278 275 273 270 268 265 263 261 259 258 255 253 252 249 250 251 251 251 252
303 304 305 308 310 314 316 318 318 319 318 317 315 314 312 310 309 308 307 307 306 305 303 302 300 298 295 292 288 284 279 274 271 268 265 263 261 259 257 256 255 253 252 251 249 249 249 250 250
307 309 310 312 313 312 315 317 320 320 319 319 318 316 314 313 312 310 309 307 306 304 303 302 301 300 299 297 295 291 286 279 273 268 263 260 258 256 255 254 253 252 251 250 249 249 248 249 249
Height
5931 5930 5930 5931 5931 5930 5929 5929 5929 5929 5929 5929 5927 5926 5926 5926 5926 5927 5924 5921 5920 5919 5918 5918 5917 5917 5916 5916 5915 5915 5914 5914 5913 5912 5911 5910 5909 5908 5907 5906 5905 5904 5902 5901 5899 5897 5896 5895 5894
5931 5931 5931 5931 5930 5929 5929 5927 5926 5927 5928 5928 5927 5926 5926 5925 5924 5924 5922 5921 5920 5919 5918 5917 5917 5916 5916 5915 5915 5914 5913 5913 5912 5911 5910 5909 5908 5907 5906 5905 5904 5902 5901 5900 5899 5897 5896 5894 5893
5931 5930 5931 5930 5929 5929 5927 5925 5923 5923 5925 5926 5926 5926 5925 5924 5923 5923 5922 5921 5920 5919 5918 5917 5916 5916 5915 5914 5914 5913 5912 5911 5910 5910 5909 5908 5907 5906 5905 5904 5903 5901 5900 5899 5898 5896 5895 5893 5892
5930 5930 5930 5930 5928 5927 5925 5924 5922 5920 5922 5923 5923 5924 5924 5923 5922 5922 5921 5920 5919 5918 5917 5916 5915 5915 5914 5913 5913 5912 5911 5910 5909 5908 5907 5906 5905 5904 5903 5902 5901 5900 5899 5898 5896 5895 5894 5893 5891
5929 5929 5929 5928 5926 5925 5923 5922 5920 5918 5918 5919 5920 5922 5922 5922 5920 5920 5919 5918 5917 5917 5916 5915 5914 5914 5913 5912 5912 5911 5909 5908 5907 5905 5904 5903 5902 5901 5900 5899 5898 5898 5897 5896 5895 5894 5892 5891 5890
5928 5928 5928 5926 5924 5922 5920 5919 5919 5917 5917 5917 5918 5920 5921 5920 5919 5918 5918 5917 5916 5916 5915 5914 5913 5913 5912 5911 5910 5908 5907 5906 5904 5903 5901 5900 5899 5897 5897 5896 5895 5894 5893 5893 5892 5891 5890 5889 5888
5926 5926 5926 5924 5922 5920 5919 5918 5917 5916 5915 5916 5916 5917 5918 5919 5918 5917 5916 5916 5915 5914 5914 5913 5912 5911 5910 5908 5907 5905 5904 5902 5900 5899 5897 5896 5895 5893 5892 5891 5891 5890 5889 5889 5888 5888 5887 5886 5885
5922 5924 5923 5921 5919 5918 5917 5916 5915 5913 5913 5913 5914 5915 5916 5917 5917 5916 5914 5914 5914 5913 5912 5911 5910 5908 5906 5905 5903 5901 5899 5898 5896 5894 5893 5892 5890 5889 5888 5886 5886 5885 5884 5884 5883 5883 5882 5882 5881
5919 5922 5920 5918 5916 5915 5914 5913 5912 5912 5911 5910 5911 5912 5913 5914 5914 5915 5914 5912 5912 5911 5910 5908 5906 5905 5902 5900 5899 5897 5895 5893 5891 5890 5888 5887 5885 5884 5882 5881 5880 5879 5879 5878 5877 5877 5876 5876 5876
5915 5917 5918 5915 5913 5912 5912 5911 5909 5909 5908 5908 5909 5909 5910 5911 5912 5913 5913 5912 5910 5909 5907 5905 5903 5900 5898 5896 5894 5892 5890 5888 5886 5885 5883 5882 5880 5879 5877 5876 5874 5873 5872 5872 5871 5871 5870 5869 5869
5910 5913 5913 5910 5909 5908 5908 5909 5908 5906 5905 5906 5906 5907 5908 5908 5908 5909 5910 5910 5908 5905 5903 5901 5898 5895 5893 5891 5889 5887 5885 5883 5881 5879 5878 5876 5874 5873 5871 5870 5868 5867 5866 5865 5865 5864 5864 5863 5862
5906 5908 5907 5906 5905 5905 5905 5906 5906 5904 5904 5904 5904 5904 5905 5905 5905 5904 5903 5904 5904 5900 5897 5893 5891 5889 5887 5885 5884 5882 5879 5877 5875 5873 5871 5870 5868 5867 5865 5864 5862 5861 5860 5859 5858 5858 5857 5856 5855
5902 5903 5903 5903 5902 5902 5902 5902 5902 5902 5902 5901 5900 5900 5900 5900 5899 5899 5898 5896 5894 5893 5889 5886 5882 5881 5880 5878 5877 5875 5873 5871 5868 5866 5865 5863 5862 5860 5859 5857 5856 5855 5854 5853 5852 5852 5851 5850 5850
5897 5898 5899 5900 5900 5900 5899 5898 5898 5898 5898 5897 5896 5895 5894 5894 5893 5892 5890 5887 5884 5882 5880 5876 5872 5870 5868 5868 5868 5867 5865 5863 5862 5860 5859 5857 5855 5854 5852 5851 5850 5849 5848 5847 5847 5846 5846 5845 5845
5892 5893 5894 5894 5894 5893 5893 5893 5894 5894 5892 5892 5891 5889 5889 5887 5886 5885 5882 5879 5876 5873 5871 5869 5864 5858 5855 5855 5857 5857 5856 5855 5854 5853 5852 5850 5849 5847 5846 5844 5843 5842 5841 5841 5841 5841 5841 5841 5841
5887 5888 5889 5889 5888 5887 5887 5888 5890 5888 5887 5886 5885 5884 5882 5881 5879 5877 5875 5873 5870 5866 5861 5858 5853 5845 5840 5840 5843 5846 5846 5845 5844 5844 5843 5842 5841 5840 5839 5838 5837 5836 5835 5835 5835 5836 5836 5836 5836
5882 5883 5883 5884 5883 5882 5882 5883 5884 5882 5882 5881 5880 5878 5876 5874 5872 5870 5868 5866 5862 5856 5849 5843 5835 5827 5822 5825 5829 5831 5833 5834 5835 5834 5834 5834 5833 5832 5831 5831 5830 5829 5829 5829 5829 5830 5830 5831 5831
5879 5879 5879 5879 5879 5879 5878 5877 5876 5876 5875 5875 5873 5872 5870 5868 5865 5863 5861 5858 5853 5847 5840 5833 5823 5814 5812 5814 5817 5820 5822 5825 5827 5827 5827 5827 5826 5825 5824 5824 5823 5823 5823 5823 5824 5824 5825 5826 5827
5875 5875 5875 5875 5876 5875 5873 5872 5872 5871 5870 5869 5867 5866 5863 5862 5859 5857 5854 5850 5846 5839 5831 5823 5818 5811 5807 5809 5811 5812 5815 5818 5820 5820 5820 5820 5820 5819 5818 5818 5818 5817 5817 5818 5818 5819 5819 5821 5822
5871 5871 5871 5872 5872 5871 5869 5869 5868 5868 5867 5866 5863 5860 5858 5856 5853 5851 5848 5843 5838 5833 5828 5824 5817 5808 5804 5805 5806 5809 5810 5811 5813 5813 5813 5813 5813 5813 5812 5812 5812 5812 5812 5812 5813 5814 5814 5815 5817
5868 5868 5868 5868 5868 5868 5866 5866 5864 5864 5863 5861 5858 5855 5852 5849 5847 5845 5842 5837 5834 5830 5826 5822 5817 5809 5805 5805 5804 5804 5805 5805 5806 5806 5806 5806 5806 5806 5806 5805 5806 5806 5806 5807 5808 5809 5809 5810 5811
5865 5865 5864 5864 5864 5864 5864 5861 5859 5858 5857 5856 5853 5850 5848 5845 5842 5840 5836 5833 5828 5824 5820 5816 5812 5808 5805 5802 5800 5799 5799 5799 5799 5799 5799 5799 5798 5798 5798 5798 5799 5799 5800 5800 5802 5803 5804 5804 5805
5863 5862 5861 5861 5860 5860 5859 5857 5855 5852 5850 5849 5847 5844 5842 5840 5837 5833 5830 5826 5821 5817 5813 5809 5805 5803 5800 5797 5795 5793 5792 5792 5792 5791 5791 5791 5791 5791 5790 5790 5791 5792 5792 5793 5794 5795 5797 5797 5798
5861 5860 5859 5858 5857 5857 5855 5853 5851 5846 5843 5842 5840 5837 5835 5832 5829 5825 5821 5817 5812 5808 5804 5800 5797 5794 5791 5789 5787 5786 5785 5784 5783 5783 5783 5783 5783 5783 5783 5783 5783 5783 5784 5785 5786 5787 5789 5790 5791
5860 5859 5858 5856 5854 5853 5851 5849 5847 5843 5838 5836 5834 5831 5828 5824 5820 5815 5811 5807 5802 5797 5793 5790 5787 5784 5782 5780 5778 5776 5775 5774 5774 5773 5772 5772 5772 5773 5774 5774 5774 5774 5775 5776 5777 5778 5780 5781 5783
5858 5857 5856 5853 5851 5849 5846 5844 5843 5838 5834 5831 5828 5824 5820 5816 5811 5805 5800 5795 5790 5786 5782 5779 5776 5773 5770 5768 5766 5764 5762 5762 5761 5761 5760 5760 5760 5761 5762 5763 5764 5764 5765 5766 5767 5768 5770 5772 5774
5856 5854 5853 5851 5848 5845 5842 5840 5837 5833 5829 5824 5820 5815 5810 5805 5799 5793 5787 5781 5776 5771 5768 5764 5761 5759 5756 5753 5750 5748 5746 5746 5745 5745 5746 5746 5746 5747 5747 5749 5750 5752 5753 5755 5756 5758 5760 5762 5764
5854 5852 5850 5847 5844 5841 5838 5834 5831 5827 5822 5818 5812 5807 5801 5795 5788 5781 5774 5767 5760 5754 5748 5744 5741 5738 5736 5734 5732 5729 5727 5726 5726 5726 5727 5728 5729 5730 5731 5733 5735 5737 5739 5741 5744 5746 5748 5750 5753
5852 5850 5846 5844 5841 5837 5833 5832 5826 5821 5817 5811 5805 5799 5792 5785 5778 5771 5763 5755 5747 5738 5729 5722 5716 5713 5710 5708 5707 5706 5704 5703 5703 5703 5704 5706 5708 5710 5713 5715 5717 5720 5723 5726 5729 5732 5735 5738 5741
5849 5846 5843 5841 5837 5833 5829 5827 5820 5815 5809 5803 5796 5789 5782 5774 5767 5759 5750 5741 5732 5723 5714 5704 5696 5689 5685 5681 5679 5677 5676 5676 5677 5678 5679 5681 5684 5687 5691 5694 5697 5701 5704 5708 5713 5716 5720 5724 5728